Regional Weather Roundup
Issued by NWS

Home | Current Version | Previous Version | Text Only | Print | Product List | Glossary Off
Versions: 1 2 3 4 5 6 7 8 9 10 11 12 13 14 15 16 17 18 19 20 21 22 23 24 25 26 27 28 29 30 31 32 33 34 35 36 37 38 39 40 41 42 43 44 45 46 47 48 49 50

000
ASUS43 KTOP 212259
RWRKS

WEATHER ROUNDUP FOR KANSAS
NATIONAL WEATHER SERVICE GOODLAND KS
600 PM CDT MON MAY 21 2018

NOTE:  "FAIR" INDICATES FEW OR NO CLOUDS BELOW 12,000 FEET WITH NO
SIGNIFICANT WEATHER AND/OR OBSTRUCTIONS TO VISIBILITY.

KSZ001>006-013>018-027>032-041>047-220000-
NORTHWEST KANSAS

CITY           SKY/WX    TMP DP  RH WIND       PRES   REMARKS
GOODLAND       CLOUDY    79  56  45 S17       29.90F
HAYS           SUNNY     80  59  48 S16       29.94F
HILL CITY      CLOUDY    79  60  52 S10G22    29.94S
RUSSELL        SUNNY     81  60  48 S12G20    29.93F
$$

KSZ061>065-074>080-084>089-220000-
SOUTHWEST KANSAS

CITY           SKY/WX    TMP DP  RH WIND       PRES   REMARKS
DODGE CITY     MOSUNNY   81  57  43 S17G25    29.95F
GARDEN CITY    SUNNY     83  54  36 S17G29    29.92F
GREAT BEND     SUNNY     80  60  50 S14       29.95F
LIBERAL        SUNNY     84  57  39 S18       29.95F
$$

KSZ066>073-081>083-090>101-220000-
SOUTHEAST KANSAS

CITY           SKY/WX    TMP DP  RH WIND       PRES   REMARKS
CHANUTE        SUNNY     77  63  61 CALM      30.00F
COFFEYVILLE    SUNNY     80  60  50 CALM      29.98F
HUTCHINSON     MOSUNNY   80  60  50 S15       29.97F
MEDICINE LODGE   N/A     82  58  43 SE7       29.95F
NEWTON         SUNNY     78  59  51 S8        29.99F
PARSONS        SUNNY     79  63  57 VRB3      30.00F
WICHITA INTL   MOSUNNY   79  58  48 S8        29.98F
WICHITA JABRA  SUNNY     78  60  53 S10       29.98F
WINFIELD       SUNNY     79  62  56 SE6       29.99F
$$

KSZ007>012-019>026-033>040-048>060-102>105-220000-
NORTHEAST KANSAS

CITY           SKY/WX    TMP DP  RH WIND       PRES   REMARKS
CONCORDIA      CLOUDY    76  57  51 S10       29.97F
EMPORIA        SUNNY     77  60  55 NE3       29.99F
LAWRENCE       SUNNY     75  60  59 CALM      29.99F
MANHATTAN      MOSUNNY   79  58  48 W6        29.97F
OLATHE IND     SUNNY     74  59  59 NW8       30.01S
OLATHE EXE     SUNNY     74  58  57 NW7       30.00F
SALINA         SUNNY     81  58  45 S9        29.96F
TOPEKA BILLARD SUNNY     77  60  55 NW5       29.99S
TOPEKA FORBES  SUNNY     78  60  53 W3        29.99F
$$




USA.gov is the U.S. government's official web portal to all federal, state and local government web resources and services.